INTELSAT 35E (IS-35E) (42818 NORAD) Tracking and Keplerian Element Data

This shows tracking and keplerian element data for the satellite.

Feedback or suggestion? Click here.




ElementValue
Catalog42818
NameINTELSAT 35E (IS-35E)
Epoch Orbit2540
Epoch Day160.14146601
Epoch Year2024
RAAN36.6372
Inclination0.018
Eccentricity0.0001525
Argument of Perigee36.618
Mean Anonmoly200.1909
Mean Motion1.00272081
Decay Rate-2.39E-06
L11 42818U 17041A 24160.14146601 -.00000239 00000+0 00000+0 0 9995
L22 42818 0.0180 36.6372 0001525 36.6180 200.1909 1.00272081 25401



Live tracking and technical data element details for INTELSAT 35E (IS-35E) (NORAD 42818). INTELSAT 35E (IS-35E) can be tracked NOW for your location showing map with azimuth and elevation plus other details from your city location.







IsCatalogInMostPopularTable: catalog: 42818, numindb: 677
Update: records affected: 1



GetName: 42818 INTELSAT 35E (IS-35E)

Hit Count: updated at: Mon, 17 Jun 2024 22:18:31 GMT